Погода в Гунях

Россия / Республика Дагестан     43°01′49″N   46°41′57″E
темп.,
°C
ветер,
м/с
пор.,
м/с
влажн.,
%
обл.,
%
осадки,
мм/ч
давл.,
гПа
погр.,
м
2 августа, пн
пн200:00+21юз326392 0.1 101224
03:00+20ююз226299 0.3 101217
06:00+21ююз2262100 0.0 101325
09:00+26в244168 0.1 10131220
12:00+30вюв671976 0.0 10112648
15:00+29в8824100 0.0 10111673
18:00+25вюв233779 0.0 101286
21:00+21ююз3349100 0.0 101327
3 августа, вт
вт300:00+20ююз325246 0.0 101323
03:00+19ююз324839 0.0 101322
06:00+20юз324841 0.0 101429
09:00+28всв22285 0.0 10131062
12:00+31вюв33232 0.0 10122524
15:00+31в64194 0.0 10112470
18:00+27юв34320 0.0 1012118
21:00+22юз43410 0.0 101334
4 августа, ср
ср400:00+22ююз32420 0.0 101321
03:00+22юз32450 0.0 101419
06:00+23юз22500 0.0 101426
09:00+29св21340 0.0 10141345
12:00+31всв32271 0.0 10132839
15:00+32всв332435 0.0 10123028
18:00+28вюв343596 0.0 1013111
21:00+25юз3336100 0.0 101449
5 августа, чт
чт500:00+24юз334399 0.0 101445
03:00+23юз3345100 0.0 101426
06:00+22юз3361100 0.4 101438
09:00+28ссв224018 0.5 1014931
12:00+31с333342 0.0 10132549
15:00+26зюз225064 0.4 101296
18:00+26зюз225038 0.2 101334
21:00+23юз43540 0.2 101438
6 августа, пт
пт600:00+22ююз33540 0.1 101333
03:00+22ююз32530 0.1 101224
06:00+22ююз22530 0.0 101228
09:00+28в23380 0.0 10111088
12:00+32в44320 0.0 10102142
15:00+31в54340 0.0 10081785
18:00+27вюв46435 0.0 1008405
21:00+23ю345194 0.0 100966